Regional Weather Roundup
Issued by NWS

Home | Current Version | Previous Version | Text Only | Print | Product List | Glossary Off
Versions: 1 2 3 4 5 6 7 8 9 10 11 12 13 14 15 16 17 18 19 20 21 22 23 24 25 26 27 28 29 30 31 32 33 34 35 36 37 38 39 40 41 42 43 44 45 46 47 48 49 50

000
ASUS43 KDMX 231506
RWRIA

WEATHER ROUNDUP FOR IOWA
NATIONAL WEATHER SERVICE DES MOINES IA
1000 AM CDT SUN APR 23 2017

NOTE: "FAIR" INDICATES FEW OR NO CLOUDS BELOW 12,000 FEET WITH NO
SIGNIFICANT WEATHER AND/OR OBSTRUCTIONS TO VISIBILITY.

* - THESE STATIONS ARE NOT NWS STATIONS...THUS NOT UNDER NWS
QUALITY CONTROL.  THEY ALSO DO NOT REPORT WEATHER SUCH
AS PRECIPITATION OR FOG.

IAZ001>003-012>014-020>022-031>034-043>046-231600-
   NORTHWEST IOWA

CITY           SKY/WX    TMP DP  RH WIND       PRES   REMARKS
CARROLL *      SUNNY     63  32  31 SW10      30.13F
CHEROKEE *     SUNNY     59  40  49 S9        30.11F
DENISON *      SUNNY     59  39  47 W8        30.15S
LE MARS *      SUNNY     59  39  47 S12G17    30.11F
ORANGE CITY *  SUNNY     59  39  47 SW13      30.10S
SHELDON *      SUNNY     61  34  36 SW17      30.07F
SIOUX CITY     SUNNY     61  37  41 S15       30.11F
SPENCER        SUNNY     62  34  35 MISG      30.10F
STORM LAKE *   SUNNY     61  34  36 SW14G20   30.12F
$$

IAZ055>058-069>071-079>083-090>094-231600-
   SOUTHWEST IOWA

CITY           SKY/WX    TMP DP  RH WIND       PRES   REMARKS
ATLANTIC *     SUNNY     57  39  51 VRB6      30.15F
AUDUBON *      SUNNY     61  34  36 SW8       30.15S
CLARINDA *     SUNNY     61  39  44 SW7       30.18F
COUNCIL BLFS * SUNNY     57  37  47 SW7       30.15F
CRESTON *      SUNNY     61  36  39 W8        30.17S
HARLAN  *      SUNNY     59  41  51 VRB7      30.17F
LAMONI         SUNNY     61  35  37 NW8       30.16F
RED OAK *      SUNNY     61  37  41 SW7       30.16S
SHENANDOAH *   SUNNY     59  37  44 SW8       30.17F
$$

IAZ047>049-059>061-072>074-084-231600-
   CENTRAL IOWA

CITY           SKY/WX    TMP DP  RH WIND       PRES   REMARKS
AMES           SUNNY     62  36  37 W7        30.15S
ANKENY *       SUNNY     61  37  41 VRB5      30.16S
BOONE *        SUNNY     61  34  36 W9        30.14S
CHARITON *     SUNNY     61  34  36 W8        30.15F
DES MOINES     SUNNY     62  35  36 W5        30.15F
GRINNELL*      SUNNY     60  33  35 W8        30.17S
KNOXVILLE *    SUNNY     59  34  38 W7        30.15S
MARSHALLTOWN   SUNNY     62  35  36 W8        30.14S
NEWTON *       SUNNY     59  34  38 W9        30.15S
PELLA *        SUNNY     60  33  35 W8        30.17S
PERRY *          N/A     63  29  28 W9        30.15S
$$

IAZ004>006-015-016-023>025-035-036-231600-
   NORTH CENTRAL IOWA

CITY           SKY/WX    TMP DP  RH WIND       PRES   REMARKS
ALGONA *       SUNNY     63  34  34 SW15      30.11S
CLARION *      SUNNY     61  39  44 SW9       30.12F
ESTHERVILLE    SUNNY     61  33  35 SW18      30.09F
FORT DODGE *   SUNNY     63  41  45 W10       30.14F
MASON CITY     SUNNY     62  38  40 W7        30.13S
FOREST CITY *    N/A     63  37  39 SW7       30.12S
WEBSTER CITY * SUNNY     63  34  34 W9        30.12S
IOWA FALLS *     N/A     62  35  36 W10       30.15S
$$

IAZ007>011-017>019-026>030-037>042-050>054-066-231600-
   NORTHEAST IOWA

CITY           SKY/WX    TMP DP  RH WIND       PRES   REMARKS
CEDAR RAPIDS   SUNNY     61  35  37 W7        30.14F
CHARLES CITY * SUNNY     61  36  39 W7        30.13S
CLINTON *      SUNNY     59  37  44 W7        30.15F
DECORAH *      SUNNY     59  37  44 VRB7      30.12S
DUBUQUE        SUNNY     60  34  37 W13       30.14F
MONTICELLO *   SUNNY     63  36  36 W9        30.14S
OELWEIN *      SUNNY     61  37  41 W8        30.14S
WATERLOO       SUNNY     64  37  36 W7        30.13S
$$

IAZ064-065-067-068-078-231600-
   EAST CENTRAL IOWA

CITY           SKY/WX    TMP DP  RH WIND       PRES   REMARKS
DAVENPORT        N/A     61  33  35 W7        30.15F
IOWA CITY      SUNNY     62  37  39 W7        30.17F
MT. PLEASANT * SUNNY     60  32  34 NW5       30.16F
MUSCATINE *    SUNNY     61  34  36 VRB5      30.16F
QUAD CITIES    SUNNY     61  33  35 VRB5      30.15F
$$

IAZ062-063-075>077-085>089-095>099-231600-
   SOUTHEAST IOWA

CITY           SKY/WX    TMP DP  RH WIND       PRES   REMARKS
BURLINGTON     SUNNY     61  34  36 N7        30.15F
FAIRFIELD *    SUNNY     59  34  38 W6        30.16S
FORT MADISON * SUNNY     63  34  34 NW3       30.15F
KEOKUK *       SUNNY     59  30  33 N8        30.15F
OSKALOOSA *      N/A     60  33  35 W7        30.16F
CENTERVILLE *    N/A     63  36  36 CALM      30.17F
OTTUMWA        SUNNY     60  37  42 W5        30.15F
WASHINGTON *   SUNNY     61  36  39 W5        30.17S
$$

ABBREVIATIONS USED IN REMARKS
   TC - TEMPERATURES IN CELSIUS
  WCI - WIND CHILL INDEX
   HX - HEAT INDEX
  VSB - VISIBILITY
$$




USA.gov is the U.S. government's official web portal to all federal, state and local government web resources and services.